Weather reports worldwide

Advertisment
Nice, France (7690): temperature & dewpoint: 14.06.2019 06:00:00 - 20.06.2019 06:00:00 (CEST)Nice, France (7690): temperature 5cm: 14.06.2019 06:00:00 - 20.06.2019 06:00:00 (CEST)Nice, France (7690): temperature -20cm & temperature -100cm: 14.06.2019 06:00:00 - 20.06.2019 06:00:00 (CEST)Nice, France (7690): wind speed & gusts: 14.06.2019 06:00:00 - 20.06.2019 06:00:00 (CEST)Nice, France (7690): wind direction: 14.06.2019 06:00:00 - 20.06.2019 06:00:00 (CEST)Nice, France (7690): reduced air pressure: 14.06.2019 06:00:00 - 20.06.2019 06:00:00 (CEST)Nice, France (7690): visibility: 14.06.2019 06:00:00 - 20.06.2019 06:00:00 (CEST)Nice, France (7690): sunshine duration: 14.06.2019 06:00:00 - 20.06.2019 06:00:00 (CEST)Nice, France (7690): precipitation: 14.06.2019 06:00:00 - 20.06.2019 06:00:00 (CEST)
Date & Time tt [°C] td [°C] tt 5cm [°C] tt -20cm [°C] tt -100cm [°C] ff [km/h] ff [kn] fx [km/h] fx [kn] dd ppp [hPa] vv [km] sd [min] rr [mm]
20.06.2019 06:00:00 19,5 11,5 - - - 8 4 9 5 NNW 1013,3 40 0 -
20.06.2019 05:00:00 19,8 11,8 16,4 22,8 20,9 8 4 9 5 NNW 1012,9 40 0 0,0
20.06.2019 04:00:00 20,0 12,0 17,6 22,7 20,9 8 4 12 7 N 1012,7 40 0 0,0
20.06.2019 03:00:00 20,3 12,5 17,8 22,7 20,9 9 5 11 6 NNW 1012,9 40 0 0,0
20.06.2019 02:00:00 20,6 12,6 18,6 22,7 20,9 9 5 11 6 NNW 1013,1 40 0 0,0
20.06.2019 01:00:00 20,9 13,3 19,1 22,7 20,8 7 4 10 6 NNW 1013,1 40 0 0,0
20.06.2019 00:00:00 21,7 13,6 17,6 22,7 20,8 6 4 16 9 N 1013,2 40 0 0,0
19.06.2019 23:00:00 22,4 15,7 18,2 22,6 20,8 7 4 16 9 NNE 1013,2 40 0 0,0
19.06.2019 22:00:00 22,8 16,3 21,9 22,6 20,8 8 4 19 11 SW 1013,0 40 0 0,0
19.06.2019 21:00:00 23,9 15,1 23,4 22,6 20,8 13 7 30 16 SW 1012,3 40 19 0,0
19.06.2019 20:00:00 23,9 15,4 24,7 22,6 20,8 20 11 28 15 SSW 1012,5 40 49 0,0
19.06.2019 19:00:00 24,7 15,9 27,5 22,6 20,8 22 12 25 14 S 1012,5 40 49 0,0
19.06.2019 18:00:00 25,2 15,5 30,3 22,6 20,7 10 5 18 10 ESE 1012,7 40 55 0,0
19.06.2019 17:00:00 25,6 16,7 34,6 22,6 20,7 9 5 14 7 SSE 1013,4 40 58 0,0
19.06.2019 16:00:00 25,0 15,9 35,9 22,6 20,7 9 5 12 7 E 1013,7 40 57 0,0
19.06.2019 15:00:00 24,9 17,9 38,6 22,6 20,7 9 5 16 9 SSE 1014,2 30 60 0,0
19.06.2019 14:00:00 24,4 18,8 37,8 22,5 20,7 13 7 18 10 S 1014,5 20 60 0,0
19.06.2019 13:00:00 24,9 20,6 36,5 22,6 20,8 11 6 14 8 S 1014,4 20 60 0,0
19.06.2019 12:00:00 24,0 19,7 36,4 22,5 20,7 11 6 14 7 SSE 1014,3 20 60 0,0
19.06.2019 11:00:00 23,9 19,4 35,4 22,5 20,7 9 5 11 6 SE 1014,2 20 60 0,0
19.06.2019 10:00:00 23,7 19,2 32,9 22,5 20,7 9 5 10 5 ESE 1014,3 20 60 0,0
19.06.2019 09:00:00 23,6 18,3 27,3 22,5 20,7 5 3 7 4 SE 1014,3 20 60 0,0
19.06.2019 08:00:00 23,6 14,6 21,8 22,5 20,7 4 2 13 7 NNE 1014,3 20 60 0,0
19.06.2019 07:00:00 21,7 14,3 19,4 22,5 20,7 8 4 11 6 NNW 1014,1 20 40 0,0
19.06.2019 06:00:00 21,0 14,6 18,7 22,5 20,7 9 5 16 8 NNW 1014,0 40 0 0,0
19.06.2019 05:00:00 21,8 18,8 20,6 22,4 20,7 13 7 19 11 ENE 1014,0 40 0 0,0
19.06.2019 04:00:00 22,2 17,8 20,1 22,4 20,6 17 9 21 11 E 1013,4 40 0 0,0
19.06.2019 03:00:00 22,9 14,7 17,9 22,4 20,7 10 6 16 9 NNW 1013,4 40 0 0,0
19.06.2019 02:00:00 21,9 15,0 17,9 22,4 20,6 10 5 19 11 N 1013,4 40 0 0,0
19.06.2019 01:00:00 22,5 14,9 20,6 22,3 20,6 14 8 20 11 NNW 1013,8 40 0 0,0
19.06.2019 00:00:00 23,3 14,3 21,3 22,3 20,6 10 5 17 9 NNW 1014,0 40 0 0,0
18.06.2019 23:00:00 23,8 14,8 19,0 22,3 20,6 9 5 13 7 NNW 1014,1 40 0 0,0
18.06.2019 22:00:00 22,6 19,0 19,9 22,3 20,6 3 2 7 4 SSW 1014,2 40 0 0,0
18.06.2019 21:00:00 23,2 18,9 22,8 22,3 20,6 6 3 10 6 SSW 1014,2 40 48 0,0
18.06.2019 20:00:00 24,0 18,9 26,2 22,3 20,6 6 3 11 6 SSE 1014,2 40 60 0,0
18.06.2019 19:00:00 24,4 18,8 31,0 22,3 20,6 6 3 10 5 ESE 1014,3 40 58 0,0
18.06.2019 18:00:00 24,5 18,9 28,0 22,2 20,6 6 4 10 5 SSE 1014,4 40 8 0,0
18.06.2019 17:00:00 25,0 18,4 31,3 22,3 20,6 5 3 13 7 SE 1014,7 40 36 0,0
18.06.2019 16:00:00 25,5 19,6 38,8 22,2 20,5 10 5 16 9 S 1015,0 40 60 0,0
18.06.2019 15:00:00 25,6 18,8 39,9 22,2 20,5 8 5 11 6 SSE 1015,2 40 60 0,0
18.06.2019 14:00:00 26,0 18,9 35,2 22,2 20,5 8 4 9 5 ESE 1015,5 40 50 0,0
18.06.2019 13:00:00 27,2 17,4 40,2 22,2 20,5 8 4 10 5 E 1015,5 40 60 0,0
18.06.2019 12:00:00 26,5 17,6 39,7 22,2 20,5 7 4 10 6 E 1015,7 40 60 0,0
18.06.2019 11:00:00 25,0 18,4 34,2 22,2 20,5 6 3 16 9 E 1015,6 40 60 0,0
18.06.2019 10:00:00 24,6 17,1 32,1 22,2 20,5 15 8 20 11 SSE 1015,6 40 60 0,0
18.06.2019 09:00:00 26,6 13,0 27,2 22,2 20,5 11 6 19 10 NNW 1015,2 36 60 0,0
18.06.2019 08:00:00 24,8 13,0 23,3 22,2 20,5 8 4 16 9 NNW 1015,0 40 60 0,0
18.06.2019 07:00:00 23,2 12,8 22,0 22,2 20,5 13 7 20 11 NNW 1014,5 40 42 0,0
18.06.2019 06:00:00 22,7 12,9 21,8 22,1 20,4 18 10 30 16 NNW 1014,3 40 0 0,0
18.06.2019 05:00:00 22,7 12,6 21,8 22,1 20,4 17 9 25 14 NNW 1014,2 40 0 0,0
18.06.2019 04:00:00 23,1 13,0 22,2 22,1 20,4 14 7 22 12 NNW 1014,1 40 0 0,0
18.06.2019 03:00:00 23,2 13,1 22,3 22,1 20,4 16 9 23 12 NNW 1014,4 40 0 0,0
18.06.2019 02:00:00 23,6 13,2 22,5 22,1 20,4 15 8 22 12 NNW 1014,8 40 0 0,0
18.06.2019 01:00:00 24,1 13,6 22,8 22,1 20,4 12 7 19 11 N 1015,0 30 0 0,0
18.06.2019 00:00:00 24,5 13,7 23,2 22,1 20,4 18 10 23 12 NNW 1014,7 30 0 0,0
17.06.2019 23:00:00 24,8 14,3 20,5 22,0 20,4 8 4 13 7 N 1014,7 30 0 0,0
17.06.2019 22:00:00 22,7 17,4 21,4 22,0 20,4 13 7 15 8 W 1014,5 30 0 0,0
17.06.2019 21:00:00 23,2 17,9 23,0 22,0 20,4 10 5 15 8 SW 1014,3 30 33 0,0
17.06.2019 20:00:00 23,6 18,3 25,1 22,0 20,4 13 7 17 9 SW 1014,3 30 14 0,0
17.06.2019 19:00:00 23,7 19,0 26,7 22,0 20,4 12 6 17 9 SSW 1014,4 20 22 0,0
17.06.2019 18:00:00 23,8 18,2 32,6 22,0 20,4 13 7 20 11 S 1014,8 18 60 0,0
17.06.2019 17:00:00 23,6 18,9 33,5 21,9 20,4 16 8 22 12 S 1015,1 18 60 0,0
17.06.2019 16:00:00 24,6 19,2 37,3 21,9 20,4 13 7 17 9 S 1015,2 18 60 0,0
17.06.2019 15:00:00 23,9 18,5 38,1 21,9 20,4 9 5 14 8 SSE 1015,2 15 60 0,0
17.06.2019 14:00:00 23,4 18,7 38,0 21,9 20,3 8 4 11 6 SE 1015,5 15 60 0,0
17.06.2019 13:00:00 23,1 18,2 37,0 22,0 20,3 9 5 12 7 SSE 1016,2 15 60 0,0
17.06.2019 12:00:00 22,6 17,7 35,9 21,9 20,3 8 4 12 7 SSE 1016,7 15 55 0,0
17.06.2019 11:00:00 22,5 18,1 34,3 21,9 20,3 9 5 12 7 S 1016,8 15 60 0,0
17.06.2019 10:00:00 22,1 17,5 30,2 21,9 20,3 6 4 10 5 SE 1016,1 20 60 0,0
17.06.2019 09:00:00 22,3 15,4 24,0 21,9 20,3 4 2 7 4 ESE 1015,9 20 60 0,0
17.06.2019 08:00:00 20,9 13,3 18,5 21,9 20,3 3 1 16 9 NNE 1015,6 18 60 0,0
17.06.2019 07:00:00 18,3 12,5 17,1 21,9 20,3 11 6 22 12 NNW 1015,6 15 43 0,0
17.06.2019 06:00:00 17,7 12,6 17,0 21,9 20,2 13 7 17 9 NW 1015,5 15 0 0,0
17.06.2019 05:00:00 18,0 14,3 17,4 21,8 20,3 9 5 13 7 NW 1015,6 15 0 0,0
17.06.2019 04:00:00 18,6 15,1 18,2 21,8 20,3 9 5 16 9 NW 1015,4 15 0 0,0
17.06.2019 03:00:00 20,3 18,1 18,3 21,8 20,2 14 8 18 10 E 1015,3 15 0 0,0
17.06.2019 02:00:00 20,1 18,0 16,8 21,7 20,2 11 6 15 8 E 1015,3 15 0 0,0
17.06.2019 01:00:00 19,8 16,2 16,3 21,8 20,2 2 1 6 4 NW 1015,0 15 0 0,0
17.06.2019 00:00:00 19,9 17,5 17,3 21,7 20,2 3 1 6 3 SSW 1015,1 15 0 0,0
16.06.2019 23:00:00 20,6 17,6 18,6 21,7 20,2 5 3 9 5 S 1015,1 20 0 0,0
16.06.2019 22:00:00 20,7 17,3 19,5 21,7 20,2 6 3 9 5 SSW 1014,9 20 0 0,0
16.06.2019 21:00:00 20,9 17,5 20,5 21,7 20,2 4 2 6 4 SW 1014,7 20 47 0,0
16.06.2019 20:00:00 21,9 17,9 24,1 21,7 20,2 5 3 13 7 S 1015,2 20 60 0,0
16.06.2019 19:00:00 22,0 18,2 28,4 21,7 20,2 9 5 13 7 E 1015,3 15 60 0,0
16.06.2019 18:00:00 22,2 18,2 31,2 21,7 20,2 9 5 12 6 ESE 1015,4 15 60 0,0
16.06.2019 17:00:00 22,4 18,0 35,3 21,6 20,1 8 4 14 8 ESE 1015,9 15 60 0,0
16.06.2019 16:00:00 22,5 18,1 35,6 21,7 20,2 10 5 16 9 ESE 1016,1 15 60 0,0
16.06.2019 15:00:00 22,7 18,0 32,5 21,7 20,2 11 6 15 8 E 1016,2 15 52 0,0
16.06.2019 14:00:00 22,2 17,8 29,9 21,6 20,1 12 6 16 9 E 1016,3 15 44 0,0
16.06.2019 13:00:00 22,4 18,2 34,6 21,7 20,1 12 6 19 10 ESE 1016,7 15 57 0,0
16.06.2019 12:00:00 22,9 18,2 33,7 21,6 20,1 17 9 22 12 ESE 1016,5 15 60 0,0
16.06.2019 11:00:00 22,5 18,1 32,2 21,6 20,1 16 9 20 11 E 1016,3 15 60 0,0
16.06.2019 10:00:00 21,9 17,7 28,6 21,6 20,1 14 7 19 11 E 1016,3 15 60 0,0
16.06.2019 09:00:00 21,8 17,6 22,2 21,6 20,1 14 8 18 10 E 1016,1 15 41 0,0
16.06.2019 08:00:00 20,0 14,8 18,4 21,6 20,1 9 5 13 7 NNW 1015,9 15 15 0,0
16.06.2019 07:00:00 18,4 15,1 18,2 21,6 20,1 9 5 12 7 NNW 1015,5 10 3 0,0
16.06.2019 06:00:00 18,8 16,0 18,2 21,6 20,1 6 3 20 11 N 1015,2 10 0 0,0
16.06.2019 05:00:00 20,1 17,3 18,9 21,6 20,1 15 8 21 11 E 1015,1 10 0 0,0
16.06.2019 04:00:00 19,9 17,5 17,8 21,6 20,1 15 8 19 10 E 1014,9 10 0 0,0
16.06.2019 03:00:00 19,4 17,2 16,6 21,5 20,1 6 4 9 5 ENE 1015,2 10 0 0,0
16.06.2019 02:00:00 19,7 17,8 16,7 21,5 20,1 0 0 6 3 N 1015,5 10 0 0,0
16.06.2019 01:00:00 20,0 17,6 18,6 21,5 20,1 4 2 10 5 SSE 1015,7 10 0 0,0
16.06.2019 00:00:00 20,4 17,6 20,4 21,4 20,0 6 3 10 5 SE 1015,9 10 0 0,0
15.06.2019 23:00:00 20,5 18,1 20,1 21,4 20,0 8 4 11 6 SE 1015,9 10 0 0,0
15.06.2019 22:00:00 20,4 18,3 20,0 21,5 20,1 5 3 14 8 S 1015,6 10 0 0,0
15.06.2019 21:00:00 20,6 18,4 20,6 21,5 20,0 11 6 14 8 S 1015,0 15 27 0,0
15.06.2019 20:00:00 21,2 18,2 23,1 21,4 20,0 10 5 13 7 S 1015,3 15 60 0,0
15.06.2019 19:00:00 21,7 18,5 24,8 21,4 20,0 9 5 12 7 SSE 1015,1 15 54 0,0
15.06.2019 18:00:00 22,4 18,6 30,9 21,4 20,0 8 4 12 7 SE 1015,1 15 58 0,0
15.06.2019 17:00:00 22,6 18,2 35,2 21,4 20,0 8 4 16 9 ESE 1015,7 12 60 0,0
15.06.2019 16:00:00 22,6 18,2 35,9 21,4 20,0 10 5 17 9 SSE 1016,1 12 60 0,0
15.06.2019 15:00:00 23,2 18,5 33,2 21,4 20,0 11 6 21 11 S 1016,5 12 55 0,0
15.06.2019 14:00:00 22,4 18,0 33,2 21,4 20,0 14 8 24 13 S 1016,5 15 60 0,0
15.06.2019 13:00:00 22,2 19,0 25,6 21,4 20,0 19 11 32 18 SSW 1016,8 12 43 0,0
15.06.2019 12:00:00 21,5 18,7 29,7 21,4 20,0 27 14 34 18 SSW 1016,4 12 60 0,0
15.06.2019 11:00:00 21,9 19,3 30,2 21,3 19,9 22 12 27 15 SSW 1016,0 10 60 0,0
15.06.2019 10:00:00 22,3 19,5 27,3 21,4 19,9 13 7 17 9 S 1015,8 12 60 0,0
15.06.2019 09:00:00 21,7 19,4 23,8 21,4 20,0 14 8 18 10 SSW 1015,7 9 60 0,0
15.06.2019 08:00:00 20,8 19,1 20,8 21,3 20,0 11 6 16 8 SW 1015,5 7 46 0,0
15.06.2019 07:00:00 20,2 19,2 20,1 21,4 19,9 11 6 14 8 SW 1015,0 3,0 27 0,0
15.06.2019 06:00:00 20,1 19,1 19,6 21,3 19,9 10 5 13 7 SW 1014,9 2,8 0 0,0
15.06.2019 05:00:00 20,0 19,0 19,5 21,3 19,9 6 3 8 4 SSW 1014,6 2,8 0 0,0
15.06.2019 04:00:00 20,2 19,0 20,2 21,3 19,9 5 3 13 7 SW 1014,6 1,8 0 0,0
15.06.2019 03:00:00 20,2 19,2 20,4 21,3 19,9 10 6 13 7 S 1014,7 1,8 0 0,0
15.06.2019 02:00:00 20,6 19,4 20,2 21,3 19,9 8 4 11 6 SSE 1014,5 10 0 0,0
15.06.2019 01:00:00 20,9 19,4 20,9 21,3 19,9 6 4 13 7 SSE 1014,6 10 0 0,0
15.06.2019 00:00:00 21,1 19,4 19,1 21,3 19,9 11 6 14 8 ENE 1014,6 10 0 0,0
14.06.2019 23:00:00 20,9 18,8 20,2 21,2 19,9 2 1 28 15 NNW 1014,8 10 0 0,0
14.06.2019 22:00:00 21,7 18,9 20,7 21,2 19,9 17 9 40 22 WSW 1014,9 20 0 0,0
14.06.2019 21:00:00 22,5 17,8 21,7 21,2 19,9 9 5 48 26 NE 1012,6 20 36 0,0
14.06.2019 20:00:00 24,0 17,0 24,8 21,2 19,9 27 15 48 26 E 1012,0 20 29 0,0
14.06.2019 19:00:00 24,3 16,6 25,2 21,2 19,9 37 20 50 27 ESE 1011,1 40 2 0,0
14.06.2019 18:00:00 26,0 15,1 26,2 21,2 19,9 37 20 61 33 E 1010,3 40 5 0,0
14.06.2019 17:00:00 26,0 15,1 26,4 21,2 19,8 37 20 56 30 E 1011,1 40 0 0,0
14.06.2019 16:00:00 26,3 14,4 28,4 21,2 19,9 42 23 58 31 E 1011,1 40 22 0,0
14.06.2019 15:00:00 26,6 14,4 30,3 21,2 19,9 40 21 61 33 E 1011,3 40 37 0,0
14.06.2019 14:00:00 26,8 14,9 29,6 21,2 19,8 47 26 64 34 E 1011,4 40 28 0,0
14.06.2019 13:00:00 26,5 13,9 28,3 21,2 19,8 52 28 68 37 E 1011,6 40 27 0,0
14.06.2019 12:00:00 27,6 14,6 33,1 21,2 19,8 37 20 56 30 ENE 1012,0 40 58 0,0
14.06.2019 11:00:00 27,5 14,5 32,3 21,2 19,8 30 16 53 29 ENE 1012,3 40 55 0,0
14.06.2019 10:00:00 27,7 12,5 31,3 21,1 19,8 11 6 19 11 ENE 1012,7 40 58 0,0
14.06.2019 09:00:00 26,3 8,7 24,7 21,1 19,8 9 5 18 10 NNE 1012,7 40 24 0,0
14.06.2019 08:00:00 24,2 8,2 23,6 21,1 19,8 6 4 16 9 N 1012,8 40 19 0,0
14.06.2019 07:00:00 24,1 6,8 19,8 21,1 19,8 11 6 31 17 NE 1013,4 40 46 0,0
14.06.2019 06:00:00 23,0 6,3 19,1 21,1 19,8 14 8 23 12 N 1013,7 40 0 0,0

tt = temperature
td = dewpoint
tt 5cm = temperature 5cm
tt -20cm = temperature -20cm
tt -100cm = temperature -100cm
ff = wind speed
fx = gusts
dd = wind direction
ppp = reduced air pressure
vv = visibility
sd = sunshine duration
rr = precipitation

Next stations